Location: Coffee Ditch
(40.9640°N, 122.7500°W)
Time: 08:10:11
(UTC+00:00)

Meteor 2-13 Rocket - Pass Details

Date: 08 September 2024
Orbit: 935 x 958 km, 82.5° (Epoch: 05 October)

Event Time Altitude Azimuth Distance (km) Brightness Sun altitude
Rises 13:11:19 0° 189° (S) 3,622 7.3 -7.1°
Reaches altitude 10° 13:13:48 10° 190° (S) 2,678 6.6 -6.7°
Maximum altitude 13:19:57 81° 278° (W) 970 4.5 -5.6°
Drops below altitude 10° 13:26:06 10° 6° (N) 2,683 7.1 -4.4°
Sets 13:28:36 0° 7° (N) 3,629 7.7 -3.9°
